Location: Ostrava
(49.8330°N, 18.2830°E)
Time: 16:58:05
(UTC+02:00)

Vanguard 2 Rocket - Visible Passes

Search period start: 30 August 2016 00:00
Search period end: 09 September 2016 00:00
Orbit: 556 x 3327 km, 32.9° (Epoch: 29 August)

Date Brightness Start Highest point End Pass type
(mag) Time Alt. Az. Time Alt. Az. Time Alt. Az.
30 Aug 10.6 00:27:16 10° WSW 00:33:29 14° SW 00:33:29 14° SW visible
30 Aug 9.8 21:09:01 10° WSW 21:19:54 33° SSW 21:31:13 17° SSE visible
30 Aug 10.4 23:24:54 10° WSW 23:34:42 19° SW 23:37:00 18° SSW visible
31 Aug 9.7 20:09:58 10° WSW 20:19:44 34° S 20:34:18 10° SE visible
31 Aug 10.2 22:24:09 10° WSW 22:34:26 23° SSW 22:40:35 19° S visible
01 Sep 10.0 21:24:19 10° WSW 21:34:13 26° SSW 21:44:14 16° SSE visible
01 Sep 10.6 23:43:43 10° SW 23:48:42 12° SW 23:50:01 12° SW visible
02 Sep 9.8 20:25:03 10° WSW 20:34:08 29° SSW 20:47:17 10° SE visible
02 Sep 10.4 22:40:54 10° WSW 22:48:37 16° SSW 22:53:45 14° SSW visible
03 Sep 10.2 21:40:16 10° WSW 21:48:32 20° SSW 21:57:33 12° S visible
04 Sep 10.0 20:40:35 10° WSW 20:48:35 22° SSW 20:59:34 10° SSE visible
05 Sep 9.8 19:41:29 10° WSW 19:48:48 24° SSW 19:59:19 10° SSE visible
05 Sep 10.5 21:58:01 10° SW 22:02:53 13° SSW 22:08:30 10° S visible
06 Sep 10.3 20:57:03 10° SW 21:03:03 15° SSW 21:10:33 10° S visible
07 Sep 10.0 19:57:21 10° SW 20:03:21 18° SSW 20:11:18 10° SSE visible
